Tracking 17142 objects as of 27-May-2015
HD Live streaming from Space Station

COSMOS 2315

Track COSMOS 2315 now!
10-day predictions
COSMOS 2315 is classified as:


NORAD ID: 23603
Int'l Code: 1995-032A
Perigee: 974.9 km
Apogee: 1,018.5 km
Inclination: 82.9 °
Period: 104.9 minutes
Semi major axis: 7367 km
RCS: 2.3448 m2 (large)
Launch date: July 5, 1995
Source: Commonwealth of Independent States (former USSR) (CIS)
Your satellite tracking list
Your tracking list is empty





NASA's NSSDC Master Catalog

Two Line Element Set (TLE):
1 23603U 95032A   15146.17628395  .00000054  00000-0  42657-4 0  9998
2 23603 082.9051 009.9455 0029589 277.8441 199.1832 13.72797243996584

Source of the keplerian elements: AFSPC

N2YO: 304